sat.trackr.live / text

‹ back to catalog

GLOBALSTAR M095

NORAD 39077 · 2013-005F

PAYLOAD ACTIVE UNKNOWN

§ Identity

Operator
Country
GLOB
Launch date
2013-02-06
Launch site
TYMSC
Launch vehicle
Mass (kg)
RCS (m²)
4.87

Purposes: comms

External: N2YO · Heavens-Above · Gunter

§ Orbital elements

Epoch: 2026-09-12T15:32:52.699488Z

Period
114.08 min
Inclination
52.0105°
Eccentricity
0.0001065
Mean motion
12.62264450 rev/d
Perigee alt
1,412.8 km
Apogee alt
1,414.4 km
Semi-major
7,791.7 km
B*
-3.5788e-5
RAAN
14.9944°
Arg perigee
114.3272°
Mean anomaly
245.7706°
Rev number
62,691

§ Raw data

GLOBALSTAR M0951 39077U 13005F   26255.64783217 -.00000110  00000+0 -35788-4 0  99912 39077  52.0105  14.9944 0001065 114.3272 245.7706 12.62264450626911

JSON: /api/v1/satellites/39077 · /tle

For live sub-satellite position, see the globe view (requires WebGL).

§ Visibility from observer

Set your observer location to see the next 7 days of passes ≥ 10°. The values pass through the URL so the page stays shareable.

No JS? Fill the form by hand. The geolocation button needs JavaScript.